Niagara Falls, NY

6:18 PM EDT on September 29, 2016 (GMT -0400)
Niagara Falls International

Weather History for KIAG - August, 2013

Change the Weather History Date:

Friday, August 23, 2013

  Actual Average Record
Temperature  
Mean Temperature 66 °F -  
Max Temperature 75 °F 77 °F 86 °F (1998)
Min Temperature 57 °F 58 °F 50 °F (1993)
Cooling Degree Days 1    
Growing Degree Days 16 (Base 50)    
Moisture  
Dew Point 53 °F    
Average Humidity 66    
Maximum Humidity 94    
Minimum Humidity 40    
Precipitation  
Precipitation 0.00 in - - ()
Sea Level Pressure  
Sea Level Pressure 30.11 in    
Wind  
Wind Speed 3 mph (NE)    
Max Wind Speed 13 mph    
Max Gust Speed 20 mph    
Visibility 10 miles    
Events      
Averages and records for this station are not official NWS values.
T = Trace of Precipitation, MM = Missing Value Source: NWS Daily Summary

Daily Weather History Graph

Daily Weather History Graph

Search for Another Location

Airport or City:

Trip Planner

Search our weather history database for the weather conditions in past years. The results will help you decide how hot, cold, wet, or windy it might be!

Date:

Astronomy

Aug. 23, 2013 Rise Set
Actual Time 6:30 AM EDT 8:05 PM EDT
Civil Twilight 6:00 AM EDT 8:35 PM EDT
Nautical Twilight 5:24 AM EDT 9:11 PM EDT
Astronomical Twilight 4:45 AM EDT 9:49 PM EDT
Moon 9:16 PM EDT (8/23) 9:30 AM EDT (8/23)
Length of Visible Light 14h 34m
Length of Day
13h 34m
Waning Gibbous, 91% of the Moon is Illuminated
Aug 23
Waning Gibbous
Aug 28
Last Quarter
Sep 5
New
Sep 12
First Quarter
Sep 19
Full

Hourly Weather History & Observations

Time (EDT) Temp. Dew Point Humidity Pressure Visibility Wind Dir Wind Speed Gust Speed Precip Events Conditions
12:53 AM 64.0 °F 54.0 °F 70% 30.02 in 10.0 mi Calm Calm - N/A   Clear
1:53 AM 62.1 °F 53.1 °F 72% 30.02 in 10.0 mi Calm Calm - N/A   Clear
2:53 AM 59.0 °F 53.1 °F 81% 30.01 in 10.0 mi Calm Calm - N/A   Clear
3:53 AM 61.0 °F 54.0 °F 78% 30.01 in 10.0 mi North 4.6 mph - N/A   Clear
4:53 AM 61.0 °F 55.0 °F 81% 30.02 in 10.0 mi North 4.6 mph - N/A   Clear
5:53 AM 57.9 °F 54.0 °F 87% 30.04 in 10.0 mi Calm Calm - N/A   Clear
6:53 AM 57.9 °F 55.0 °F 90% 30.06 in 10.0 mi Calm Calm - N/A   Clear
6:59 AM 57.2 °F 55.4 °F 94% 30.07 in 10.0 mi Calm Calm - N/A   Scattered Clouds
7:53 AM 64.0 °F 57.9 °F 80% 30.09 in 10.0 mi ENE 3.5 mph - N/A   Partly Cloudy
8:53 AM 66.9 °F 57.0 °F 70% 30.11 in 10.0 mi ENE 12.7 mph - N/A   Partly Cloudy
9:53 AM 70.0 °F 55.9 °F 61% 30.12 in 10.0 mi ENE 9.2 mph - N/A   Partly Cloudy
10:53 AM 70.0 °F 55.0 °F 59% 30.13 in 10.0 mi Variable 3.5 mph - N/A   Partly Cloudy
11:53 AM 73.0 °F 55.0 °F 53% 30.13 in 10.0 mi NNE 5.8 mph - N/A   Partly Cloudy
12:53 PM 75.0 °F 55.0 °F 50% 30.13 in 10.0 mi Variable 4.6 mph - N/A   Partly Cloudy
1:53 PM 73.0 °F 55.9 °F 55% 30.13 in 10.0 mi NNE 12.7 mph 19.6 mph N/A   Partly Cloudy
2:53 PM 73.9 °F 51.1 °F 45% 30.14 in 10.0 mi NE 11.5 mph - N/A   Scattered Clouds
3:53 PM 73.9 °F 50.0 °F 43% 30.14 in 10.0 mi NNE 10.4 mph - N/A   Partly Cloudy
4:53 PM 73.9 °F 48.0 °F 40% 30.14 in 10.0 mi NE 11.5 mph - N/A   Partly Cloudy
5:53 PM 73.9 °F 48.9 °F 41% 30.14 in 10.0 mi NE 10.4 mph - N/A   Partly Cloudy
6:53 PM 72.0 °F 50.0 °F 46% 30.15 in 10.0 mi ENE 8.1 mph - N/A   Partly Cloudy
7:53 PM 66.9 °F 51.1 °F 57% 30.15 in 10.0 mi East 3.5 mph - N/A   Partly Cloudy
8:53 PM 64.9 °F 51.1 °F 61% 30.17 in 10.0 mi Calm Calm - N/A   Partly Cloudy
9:53 PM 61.0 °F 52.0 °F 72% 30.19 in 10.0 mi Calm Calm - N/A   Clear
10:53 PM 60.1 °F 52.0 °F 75% 30.20 in 10.0 mi Calm Calm - N/A   Clear
11:53 PM 57.0 °F 52.0 °F 83% 30.21 in 10.0 mi Calm Calm - N/A   Clear